This demonstration page uses our WeatherBlox Daily Observations layout. Learn more.

Left ArrowRight Arrow

38.83388, -104.82136

Hourly Observations for April 9, 2017

Temp ( °F °C ) Dew Point ( °F °C ) Humidity (%) Winds ( mph kmh ) Pressure ( in mb ) Visibility ( mi km ) Precip ( " mm )
12:58 am 00:58 Clear 54 12.4 14 -9.8 20 20 SSE 28 44 29.15 987 10 16 0.00 0.00
1:34 am 01:34 Clear 54 12 16 -9 22 22 ESE 12 19 29.41 996 10 16 0.00 0.00
1:51 am 01:51 Clear 54 12 16 -9 22 22 SSE 14 22 29.41 996 10 16 0.00 0.00
1:58 am 01:58 Clear 53 11.5 16 -8.8 23 23 SE 12 19 29.18 988 10 16 0.00 0.00
2:03 am 02:03 Clear 52 11 18 -8 26 26 SE 14 22 29.41 996 10 16 0.00 0.00
2:58 am 02:58 Clear 52 11 17 -8.5 25 25 SE 9 15 29.16 987 10 16 0.00 0.00
3:58 am 03:58 Clear 51 10.5 16 -9.1 24 24 SE 14 22 29.15 987 10 16 0.00 0.00
4:58 am 04:58 Clear 50 10 15 -9.5 25 25 SE 17 28 29.12 986 10 16 0.00 0.00
5:09 am 05:09 Clear 50 10 14 -10 24 24 E 15 24 29.38 995 10 16 0.00 0.00
5:24 am 05:24 Clear 50 10 12 -11 22 22 E 21 33 29.32 993 10 16 0.00 0.00
5:31 am 05:31 Clear 50 10 10 -12 20 20 ENE 17 28 29.32 993 10 16 0.00 0.00
5:33 am 05:33 Clear 50 10 10 -12 20 20 NE 13 20 29.32 993 10 16 0.00 0.00
5:38 am 05:38 Clear 50 10 10 -12 20 20 SE 21 33 29.32 993 10 16 0.00 0.00
5:44 am 05:44 Clear 50 10 10 -12 20 20 E 13 20 29.32 993 10 16 0.00 0.00
5:48 am 05:48 Clear 50 10 10 -12 20 20 SE 17 28 29.32 993 10 16 0.00 0.00
5:59 am 05:59 Clear 49 9.5 9 -12.7 20 20 ESE 15 24 29.10 986 10 16 0.00 0.00
6:00 am 06:00 Clear 50 10 10 -12 20 20 ESE 12 19 29.32 993 10 16 0.00 0.00
6:14 am 06:14 Clear 50 10 9 -13 19 19 S 13 20 29.38 995 10 16 0.00 0.00
6:58 am 06:58 Sunny 49 9.2 9 -12.9 20 20 Calm 29.17 988 10 16 0.00 0.00
7:58 am 07:58 Sunny 51 10.3 11 -11.7 20 20 WSW 3 6 29.21 989 10 16 0.00 0.00
8:58 am 08:58 Sunny 52 10.9 10 -12.5 18 18 N 9 15 29.22 990 10 16 0.00 0.00
9:24 am 09:24 Sunny 54 12 12 -11 19 19 SE 16 26 29.41 996 10 16 0.00 0.00
9:57 am 09:57 Sunny 54 12 12 -11 19 19 ENE 12 19 29.41 996 10 16 0.00 0.00
10:07 am 10:07 Sunny 54 12 12 -11 19 19 SE 14 22 29.41 996 10 16 0.00 0.00
10:13 am 10:13 Sunny 54 12 10 -12 18 18 SW 12 19 29.41 996 10 16 0.00 0.00
10:27 am 10:27 Sunny 54 12 12 -11 19 19 S 17 28 29.41 996 10 16 0.00 0.00
10:36 am 10:36 Sunny 54 12 12 -11 19 19 SSE 18 30 29.41 996 10 16 0.00 0.00
10:45 am 10:45 Sunny 54 12 12 -11 19 19 S 16 26 29.41 996 10 16 0.00 0.00
10:59 am 10:59 Sunny 54 12 10 -12 18 18 S 17 28 29.41 996 10 16 0.00 0.00
11:00 am 11:00 Sunny 54 12 10 -12 18 18 ESE 17 28 29.41 996 10 16 0.00 0.00
11:12 am 11:12 Sunny 54 12 10 -12 18 18 SSE 21 33 29.41 996 10 16 0.00 0.00
11:32 am 11:32 Sunny 54 12 9 -13 16 16 S 22 35 29.41 996 10 16 0.00 0.00
11:46 am 11:46 Sunny 55 13 7 -14 14 14 E 13 20 29.38 995 10 16 0.00 0.00
11:58 am 11:58 Sunny 55 12.5 9 -12.8 16 16 E 13 20 29.21 989 10 16 0.00 0.00
11:59 am 11:59 Sunny 55 13 9 -13 15 15 ESE 14 22 29.38 995 10 16 0.00 0.00
12:12 pm 12:12 Sunny 55 13 9 -13 15 15 E 16 26 29.38 995 10 16 0.00 0.00
12:23 pm 12:23 Sunny 55 13 9 -13 15 15 SE 14 22 29.38 995 10 16 0.00 0.00
12:27 pm 12:27 Sunny 55 13 7 -14 14 14 SSE 16 26 29.38 995 10 16 0.00 0.00
12:33 pm 12:33 Sunny 55 13 7 -14 14 14 ESE 17 28 29.38 995 10 16 0.00 0.00
12:40 pm 12:40 Sunny 55 13 9 -13 15 15 SSE 20 31 29.38 995 10 16 0.00 0.00
12:49 pm 12:49 Sunny 55 13 7 -14 14 14 SE 13 20 29.38 995 10 16 0.00 0.00
12:58 pm 12:58 Sunny 55 12.9 6 -14.3 14 14 S 15 24 29.22 990 10 16 0.00 0.00
1:01 pm 13:01 Sunny 55 13 5 -15 13 13 SE 20 31 29.38 995 10 16 0.00 0.00
1:06 pm 13:06 Sunny 55 13 5 -15 13 13 S 21 33 29.38 995 10 16 0.00 0.00
1:27 pm 13:27 Sunny 55 13 5 -15 13 13 ESE 16 26 29.38 995 10 16 0.00 0.00
1:30 pm 13:30 Sunny 55 13 5 -15 13 13 S 17 28 29.38 995 10 16 0.00 0.00
1:38 pm 13:38 Sunny 55 13 3 -16 12 12 E 14 22 29.38 995 10 16 0.00 0.00
1:42 pm 13:42 Sunny 55 13 5 -15 13 13 SSE 16 26 29.38 995 10 16 0.00 0.00
1:58 pm 13:58 Sunny 56 13.2 3 -15.9 12 12 S 12 19 29.26 991 10 16 0.00 0.00
2:21 pm 14:21 Sunny 55 13 5 -15 13 13 S 14 22 29.38 995 10 16 0.00 0.00
2:28 pm 14:28 Sunny 55 13 3 -16 12 12 E 12 19 29.41 996 10 16 0.00 0.00
2:33 pm 14:33 Sunny 55 13 5 -15 13 13 SSE 12 19 29.38 995 10 16 0.00 0.00
2:58 pm 14:58 Sunny 56 13.3 2 -16.4 11 11 SSE 17 28 29.26 991 10 16 0.00 0.00
3:03 pm 15:03 Sunny 55 13 1 -17 11 11 S 20 31 29.41 996 10 16 0.00 0.00
3:06 pm 15:06 Sunny 55 13 1 -17 11 11 SE 16 26 29.41 996 10 16 0.00 0.00
3:45 pm 15:45 Sunny 55 13 3 -16 12 12 E 12 19 29.41 996 10 16 0.00 0.00
3:47 pm 15:47 Sunny 55 13 3 -16 12 12 N 14 22 29.41 996 10 16 0.00 0.00
3:58 pm 15:58 Sunny 55 12.6 4 -15.7 12 12 SE 9 15 29.29 992 10 16 0.00 0.00
4:58 pm 16:58 Sunny 53 11.7 1 -17.3 12 12 WNW 7 11 29.34 994 10 16 0.00 0.00
5:58 pm 17:58 Sunny 51 10.5 4 -15.6 14 14 SE 18 30 29.38 995 10 16 0.00 0.00
6:25 pm 18:25 Sunny 50 10 3 -16 14 14 S 13 20 29.59 1002 10 16 0.00 0.00
6:58 pm 18:58 Sunny 49 9.5 1 -17.4 13 13 S 8 13 29.42 996 10 16 0.00 0.00
7:10 pm 19:10 Sunny 48 9 0 -18 13 13 W 13 20 29.62 1003 10 16 0.00 0.00
7:21 pm 19:21 Sunny 48 9 0 -18 13 13 NW 12 19 29.62 1003 10 16 0.00 0.00
7:34 pm 19:34 Clear 48 9 -2 -19 12 12 NW 14 22 29.62 1003 10 16 0.00 0.00
7:58 pm 19:58 Clear 47 8.1 -2 -18.9 13 13 NE 6 9 29.44 997 10 16 0.00 0.00
8:58 pm 20:58 Clear 44 6.7 -4 -19.8 13 13 SSW 6 9 29.49 999 10 16 0.00 0.00
9:58 pm 21:58 Clear 43 5.9 -2 -19 15 15 NW 12 19 29.51 999 10 16 0.00 0.00
10:58 pm 22:58 Clear 42 5.4 -3 -19.4 15 15 SSE 6 9 29.53 1000 10 16 0.00 0.00
11:58 pm 23:58 Clear 41 5.2 1 -17.3 18 18 SW 7 11 29.55 1001 10 16 0.00 0.00

Powered by AerisWeather